Location: Newark
(25.0000°N, 73.5000°E)
Time: 04:19:24
(UTC+00:00)

Altair - Pass Details

Date: 05 March 2021
Orbit: 1501 x 1683 km, 47.2° (Epoch: 12 April)

Event Time Altitude Azimuth Distance (km) Brightness Sun altitude
Rises 16:13:59 0° 304° (NW) 4,661 10.8 -42.1°
Reaches altitude 10° 16:18:28 10° 323° (NW) 3,704 9.9 -43.1°
Maximum altitude 16:24:23 18° 3° (N) 3,161 9.2 -44.4°
Enters shadow 16:24:45 18° 6° (N) 3,166 9.1 -44.4°
Drops below altitude 10° 16:30:24 10° 43° (NE) 3,790 - -45.7°
Sets 16:35:05 0° 62° (ENE) 4,812 - -46.7°
